• In India
  • List of Countries
  • For 7 days
  • Water Temperature
  • Satellite Maps
  • Weather Map
  • Weather Widgets
  • user-avatar
    Login

    Hourly Weather Trashigang

    Today, 22 January, Monday

    Time Temperature Precipitation Wind Pressure Humidity
    00:00 +10°C° 0 mm 1 mps 625 mmHg 84%
    01:00 +10°C° 0 mm 1 mps 624 mmHg 82%
    02:00 +10°C° 0 mm 1 mps 624 mmHg 80%
    03:00 +10°C° 0 mm 1 mps 624 mmHg 79%
    04:00 +10°C° 0 mm 1 mps 624 mmHg 79%
    05:00 +10°C° 0 mm 1 mps 624 mmHg 78%
    06:00 +9°C° 0 mm 1 mps 624 mmHg 78%
    07:00 +12°C° 0 mm 1 mps 625 mmHg 72%
    08:00 +14°C° 0 mm 1 mps 626 mmHg 66%
    09:00 +16°C° 0 mm 1 mps 627 mmHg 60%
    10:00 +18°C° 0 mm 1 mps 627 mmHg 59%
    11:00 +18°C° 0 mm 2 mps 627 mmHg 58%
    12:00 +19°C° 0 mm 2 mps 627 mmHg 58%
    13:00 +18°C° 0 mm 2 mps 626 mmHg 61%
    14:00 +18°C° 0 mm 2 mps 626 mmHg 64%
    15:00 +17°C° 0 mm 2 mps 625 mmHg 68%
    16:00 +16°C° 0 mm 1 mps 625 mmHg 76%
    17:00 +14°C° 0 mm 1 mps 624 mmHg 84%
    18:00 +12°C° 0 mm 0 mps 624 mmHg 91%
    19:00 +12°C° 0 mm 1 mps 624 mmHg 90%
    20:00 +12°C° 0 mm 1 mps 625 mmHg 89%
    21:00 +12°C° 0 mm 1 mps 625 mmHg 88%
    22:00 +12°C° 0 mm 1 mps 625 mmHg 87%
    23:00 +11°C° 0 mm 1 mps 625 mmHg 86%

    Tomorrow, 23 January, Tuesday

    Time Temperature Precipitation Wind Pressure Humidity
    00:00 +11°C° 0 mm 1 mps 625 mmHg 85%
    01:00 +11°C° 0 mm 1 mps 624 mmHg 84%
    02:00 +11°C° 0 mm 1 mps 624 mmHg 82%
    03:00 +11°C° 0 mm 1 mps 624 mmHg 81%
    04:00 +10°C° 0 mm 1 mps 624 mmHg 80%
    05:00 +10°C° 0 mm 1 mps 624 mmHg 79%
    06:00 +10°C° 0 mm 1 mps 624 mmHg 78%
    07:00 +12°C° 0 mm 1 mps 625 mmHg 71%
    08:00 +15°C° 0 mm 1 mps 626 mmHg 63%
    09:00 +18°C° 0 mm 1 mps 627 mmHg 56%
    10:00 +19°C° 0 mm 1 mps 626 mmHg 53%
    11:00 +19°C° 0 mm 2 mps 626 mmHg 50%
    12:00 +20°C° 0 mm 2 mps 626 mmHg 47%
    13:00 +19°C° 0 mm 2 mps 626 mmHg 49%
    14:00 +19°C° 0 mm 2 mps 625 mmHg 52%
    15:00 +19°C° 0 mm 2 mps 624 mmHg 54%
    16:00 +16°C° 0 mm 2 mps 624 mmHg 66%
    17:00 +14°C° 0 mm 1 mps 623 mmHg 77%
    18:00 +10°C° 0 mm 0 mps 623 mmHg 89%
    19:00 +11°C° 0 mm 1 mps 623 mmHg 87%
    20:00 +11°C° 0 mm 1 mps 623 mmHg 85%
    21:00 +10°C° 0 mm 1 mps 624 mmHg 83%
    22:00 +10°C° 0 mm 1 mps 624 mmHg 79%
    23:00 +10°C° 0 mm 1 mps 624 mmHg 75%

    Day after tomorrow, 24 January, Wednesday

    Time Temperature Precipitation Wind Pressure Humidity
    00:00 +9°C° 0 mm 2 mps 624 mmHg 71%
    01:00 +8°C° 0 mm 2 mps 624 mmHg 67%
    02:00 +8°C° 0 mm 2 mps 623 mmHg 64%
    03:00 +8°C° 0 mm 2 mps 623 mmHg 60%
    04:00 +8°C° 0 mm 2 mps 623 mmHg 57%
    05:00 +7°C° 0 mm 2 mps 623 mmHg 54%
    06:00 +7°C° 0 mm 2 mps 622 mmHg 51%
    07:00 +10°C° 0 mm 1 mps 624 mmHg 45%
    08:00 +13°C° 0 mm 1 mps 625 mmHg 40%
    09:00 +15°C° 0 mm 1 mps 626 mmHg 34%
    10:00 +16°C° 0 mm 1 mps 625 mmHg 34%
    11:00 +17°C° 0 mm 2 mps 625 mmHg 34%
    12:00 +18°C° 0 mm 3 mps 625 mmHg 34%
    13:00 +17°C° 0.1 mm 3 mps 624 mmHg 39%
    14:00 +16°C° 0.1 mm 3 mps 623 mmHg 44%
    15:00 +16°C° 0.1 mm 3 mps 623 mmHg 49%
    16:00 +13°C° 0.2 mm 2 mps 622 mmHg 59%
    17:00 +11°C° 0.2 mm 1 mps 621 mmHg 69%
    18:00 +9°C° 0.2 mm 1 mps 621 mmHg 79%
    19:00 +8°C° 0.1 mm 1 mps 621 mmHg 73%
    20:00 +8°C° 0.1 mm 1 mps 621 mmHg 67%
    21:00 +6°C° 0.1 mm 2 mps 622 mmHg 61%
    22:00 +6°C° 0 mm 2 mps 622 mmHg 54%
    23:00 +6°C° 0 mm 2 mps 622 mmHg 48%

    25 January, Thursday

    Time Temperature Precipitation Wind Pressure Humidity
    00:00 +6°C° 0 mm 2 mps 621 mmHg 42%
    01:00 +6°C° 0 mm 2 mps 621 mmHg 41%
    02:00 +6°C° 0 mm 2 mps 621 mmHg 39%
    03:00 +6°C° 0 mm 2 mps 621 mmHg 38%
    04:00 +7°C° 0 mm 1 mps 621 mmHg 41%
    05:00 +6°C° 0 mm 1 mps 621 mmHg 43%
    06:00 +6°C° 0 mm 1 mps 621 mmHg 45%
    07:00 +8°C° 0 mm 1 mps 622 mmHg 43%
    08:00 +11°C° 0 mm 1 mps 624 mmHg 40%
    09:00 +13°C° 0 mm 1 mps 625 mmHg 38%
    10:00 +14°C° 0 mm 1 mps 625 mmHg 39%
    11:00 +15°C° 0 mm 2 mps 625 mmHg 39%
    12:00 +16°C° 0 mm 2 mps 625 mmHg 40%
    13:00 +16°C° 0.1 mm 2 mps 624 mmHg 43%
    14:00 +15°C° 0.1 mm 2 mps 623 mmHg 46%
    15:00 +15°C° 0.1 mm 2 mps 623 mmHg 50%
    16:00 +13°C° 0.1 mm 2 mps 622 mmHg 58%
    17:00 +11°C° 0.1 mm 1 mps 622 mmHg 66%
    18:00 +9°C° 0.1 mm 1 mps 621 mmHg 75%
    19:00 +8°C° 0.1 mm 1 mps 622 mmHg 70%
    20:00 +8°C° 0.1 mm 1 mps 622 mmHg 66%
    21:00 +7°C° 0.1 mm 1 mps 623 mmHg 62%
    22:00 +7°C° 0 mm 1 mps 622 mmHg 58%
    23:00 +6°C° 0 mm 2 mps 622 mmHg 55%

    26 January, Friday

    Time Temperature Precipitation Wind Pressure Humidity
    00:00 +5°C° 0 mm 2 mps 622 mmHg 51%
    01:00 +5°C° 0 mm 2 mps 622 mmHg 49%
    02:00 +5°C° 0 mm 2 mps 621 mmHg 46%
    03:00 +5°C° 0 mm 2 mps 621 mmHg 44%
    04:00 +5°C° 0 mm 2 mps 621 mmHg 42%
    05:00 +5°C° 0 mm 2 mps 621 mmHg 40%
    06:00 +4°C° 0 mm 2 mps 622 mmHg 38%
    07:00 +8°C° 0 mm 1 mps 623 mmHg 37%
    08:00 +10°C° 0 mm 1 mps 624 mmHg 35%
    09:00 +12°C° 0 mm 1 mps 625 mmHg 33%
    10:00 +13°C° 0 mm 1 mps 625 mmHg 35%
    11:00 +14°C° 0 mm 2 mps 625 mmHg 37%
    12:00 +15°C° 0 mm 2 mps 625 mmHg 39%
    13:00 +15°C° 0.1 mm 2 mps 624 mmHg 43%
    14:00 +14°C° 0.1 mm 2 mps 623 mmHg 48%
    15:00 +14°C° 0.1 mm 2 mps 622 mmHg 52%
    16:00 +12°C° 0.2 mm 2 mps 622 mmHg 62%
    17:00 +10°C° 0.2 mm 1 mps 621 mmHg 72%
    18:00 +8°C° 0.2 mm 1 mps 621 mmHg 82%
    19:00 +8°C° 0.1 mm 1 mps 621 mmHg 79%
    20:00 +7°C° 0.1 mm 1 mps 622 mmHg 76%
    21:00 +7°C° 0.1 mm 1 mps 622 mmHg 73%
    22:00 +5°C° 0.1 mm 2 mps 622 mmHg 69%
    23:00 +5°C° 0.1 mm 2 mps 622 mmHg 65%

    27 January, Saturday

    Time Temperature Precipitation Wind Pressure Humidity
    00:00 +4°C° 0.1 mm 2 mps 621 mmHg 60%
    01:00 +4°C° 0 mm 2 mps 621 mmHg 56%
    02:00 +4°C° 0 mm 2 mps 621 mmHg 52%
    03:00 +4°C° 0 mm 2 mps 621 mmHg 47%
    04:00 +4°C° 0 mm 2 mps 621 mmHg 46%
    05:00 +3°C° 0 mm 2 mps 621 mmHg 44%
    06:00 +3°C° 0 mm 2 mps 621 mmHg 42%
    07:00 +6°C° 0 mm 1 mps 622 mmHg 40%
    08:00 +9°C° 0 mm 1 mps 623 mmHg 37%
    09:00 +11°C° 0 mm 1 mps 624 mmHg 35%
    10:00 +12°C° 0 mm 2 mps 624 mmHg 36%
    11:00 +13°C° 0 mm 2 mps 624 mmHg 38%
    12:00 +13°C° 0 mm 2 mps 623 mmHg 40%
    13:00 +13°C° 0.3 mm 2 mps 623 mmHg 45%
    14:00 +12°C° 0.3 mm 2 mps 622 mmHg 50%
    15:00 +12°C° 0.3 mm 2 mps 621 mmHg 55%
    16:00 +10°C° 0.3 mm 1 mps 621 mmHg 63%
    17:00 +8°C° 0.3 mm 1 mps 620 mmHg 70%
    18:00 +6°C° 0.3 mm 1 mps 620 mmHg 77%
    19:00 +6°C° 0.1 mm 1 mps 620 mmHg 74%
    20:00 +5°C° 0.1 mm 1 mps 621 mmHg 70%
    21:00 +5°C° 0.1 mm 1 mps 621 mmHg 67%
    22:00 +5°C° 0 mm 1 mps 621 mmHg 64%
    23:00 +4°C° 0 mm 1 mps 621 mmHg 61%
    Show more